Weather History for Emporia, KS

Change the Weather History Date:

Thursday, February 9, 2012

  Actual Average Record
Temperature  
Mean Temperature 37 °F 34 °F  
Max Temperature 41 °F 44 °F 64 °F (2000)
Min Temperature 32 °F 23 °F -6 °F (2011)
Degree Days  
Heating Degree Days 28 31  
Month to date heating degree days 220 290  
Since 1 July heating degree days 2796 3278  
Cooling Degree Days 0 0  
Month to date cooling degree days 0 0  
Year to date cooling degree days 0 0  
Moisture  
Dew Point 30 °F    
Average Humidity 79    
Maximum Humidity 92    
Minimum Humidity 65    
Precipitation  
Precipitation 0.00 in 0.04 in 0.42 in (2001)
Month to date precipitation 1.64 0.39  
Year to date precipitation 1.64 1.02  
Sea Level Pressure  
Sea Level Pressure 30.24 in    
Wind  
Wind Speed 7 mph (SSW)    
Max Wind Speed 16 mph    
Max Gust Speed 24 mph    
Visibility 8 miles    
Events      
T = Trace of Precipitation, MM = Missing Value Source: NWS Daily Summary

Daily Weather History Graph

Daily Weather History Graph

Search for Another Location

Airport:

Trip Planner

Search our weather history database for the weather conditions in past years. The results will help you decide how hot, cold, wet, or windy it might be!

Date:

Astronomy

Feb. 09, 2012 Rise Set
Actual Time 7:22 AM CST 5:55 PM CST
Civil Twilight 6:55 AM CST 6:23 PM CST
Nautical Twilight 6:23 AM CST 6:54 PM CST
Astronomical Twilight 5:53 AM CST 7:25 PM CST
Moon 8:22 PM CST (2/9) 8:01 AM CST (2/9)
Length of Visible Light 11h 28m
Length of Day
10h 33m
Waning Gibbous, 96% of the Moon is Illuminated
Feb 9
Waning Gibbous
Feb 14
Last Quarter
Feb 21
New
Feb 29
First Quarter
Mar 8
Full

Hourly Weather History & Observations

Time (CST) Temp. Windchill Dew Point Humidity Pressure Visibility Wind Dir Wind Speed Gust Speed Precip Events Conditions
12:53 AM 33.1 °F - 28.9 °F 85% 30.39 in 8.0 mi Calm Calm - N/A   Overcast
1:21 AM 32.0 °F - 28.4 °F 87% 30.34 in 8.0 mi Calm Calm - N/A   Overcast
1:53 AM 32.0 °F - 28.9 °F 88% 30.38 in 8.0 mi Calm Calm - N/A   Overcast
2:53 AM 32.0 °F - 28.9 °F 88% 30.36 in 8.0 mi Calm Calm - N/A   Overcast
3:53 AM 32.0 °F 27.5 °F 28.0 °F 85% 30.35 in 8.0 mi South 4.6 mph - N/A   Overcast
4:53 AM 32.0 °F - 28.0 °F 85% 30.34 in 8.0 mi Calm Calm - N/A   Overcast
5:53 AM 32.0 °F 25.6 °F 27.0 °F 82% 30.33 in 9.0 mi South 6.9 mph - N/A   Overcast
6:53 AM 32.0 °F 25.6 °F 27.0 °F 82% 30.32 in 10.0 mi South 6.9 mph - N/A   Overcast
7:17 AM 32.0 °F 25.6 °F 26.6 °F 80% 30.28 in 10.0 mi South 6.9 mph - N/A   Overcast
7:53 AM 32.0 °F 24.2 °F 27.0 °F 82% 30.32 in 10.0 mi South 9.2 mph - N/A   Overcast
8:15 AM 32.0 °F 24.8 °F 28.4 °F 87% 30.29 in 9.0 mi South 8.1 mph - N/A   Overcast
8:53 AM 33.1 °F 26.9 °F 28.0 °F 82% 30.32 in 10.0 mi South 6.9 mph - N/A   Overcast
9:53 AM 34.0 °F 27.2 °F 28.9 °F 82% 30.32 in 10.0 mi South 8.1 mph - N/A   Overcast
10:04 AM 33.8 °F 27.7 °F 28.4 °F 81% 30.28 in 10.0 mi South 6.9 mph - N/A   Overcast
10:53 AM 37.0 °F 29.8 °F 30.0 °F 76% 30.31 in 9.0 mi SSW 10.4 mph - N/A   Overcast
11:16 AM 37.4 °F 30.3 °F 30.2 °F 75% 30.26 in 9.0 mi South 10.4 mph - N/A   Overcast
11:53 AM 37.0 °F 30.4 °F 30.0 °F 76% 30.28 in 8.0 mi SSW 9.2 mph - N/A   Overcast
12:53 PM 37.0 °F 31.0 °F 30.0 °F 76% 30.24 in 8.0 mi SSW 8.1 mph - N/A   Overcast
1:53 PM 39.0 °F 31.8 °F 30.0 °F 70% 30.21 in 8.0 mi SSW 11.5 mph - N/A   Overcast
2:53 PM 41.0 °F 35.2 °F 30.0 °F 65% 30.18 in 9.0 mi SSW 9.2 mph - N/A   Overcast
3:53 PM 41.0 °F 35.8 °F 30.0 °F 65% 30.17 in 9.0 mi SW 8.1 mph - N/A   Overcast
4:40 PM 39.2 °F 33.6 °F 30.2 °F 70% 30.13 in 8.0 mi SSW 8.1 mph - N/A   Overcast
4:53 PM 39.9 °F 35.8 °F 30.0 °F 68% 30.16 in 8.0 mi SW 5.8 mph - N/A   Scattered Clouds
5:46 PM 39.2 °F 34.2 °F 30.2 °F 70% 30.12 in 8.0 mi SSW 6.9 mph - N/A   Mostly Cloudy
5:53 PM 39.0 °F 34.0 °F 30.9 °F 73% 30.15 in 8.0 mi SSW 6.9 mph - N/A   Mostly Cloudy
6:53 PM 39.0 °F 34.8 °F 32.0 °F 76% 30.15 in 8.0 mi SSW 5.8 mph - N/A   Overcast
7:53 PM 39.0 °F 33.4 °F 32.0 °F 76% 30.15 in 8.0 mi SSW 8.1 mph - N/A   Overcast
8:53 PM 37.0 °F 28.9 °F 33.1 °F 86% 30.15 in 6.0 mi SSW 12.7 mph - N/A   Overcast
9:53 PM 36.0 °F 30.3 °F 33.1 °F 89% 30.16 in 6.0 mi SSW 6.9 mph - N/A   Overcast
10:53 PM 36.0 °F 28.0 °F 33.1 °F 89% 30.15 in 8.0 mi SSW 11.5 mph - N/A   Overcast
11:03 PM 35.6 °F 28.0 °F 33.8 °F 93% 30.12 in 8.0 mi SSW 10.4 mph - N/A   Overcast
11:53 PM 36.0 °F 28.0 °F 33.1 °F 89% 30.14 in 9.0 mi SW 11.5 mph - N/A   Overcast